Total_Precipitation_Accumulation
0.45 0.45 0.45 0.43 0.40 0.35 0.30 0.28 0.29 0.31 0.35 0.38 0.44 0.48 0.51 0.54 0.57 0.64 0.77 0.96 1.05 1.07 1.08 1.11 1.08 1.02 0.96 0.90 0.89 0.94 1.01 0.99 0.78 0.60 0.62 0.62 0.61 0.55 0.49 0.40 0.30 0.22 0.17
0.61 0.69 0.70 0.62 0.53 0.44 0.34 0.29 0.29 0.30 0.33 0.34 0.34 0.37 0.38 0.43 0.49 0.58 0.70 0.80 0.89 0.91 0.89 0.87 0.82 0.77 0.73 0.70 0.72 0.73 0.75 0.85 0.81 0.67 0.69 0.69 0.65 0.62 0.63 0.57 0.41 0.27 0.21
0.67 0.91 1.02 0.94 0.79 0.61 0.42 0.28 0.23 0.23 0.25 0.26 0.27 0.31 0.39 0.50 0.59 0.64 0.67 0.70 0.71 0.74 0.80 0.82 0.75 0.68 0.65 0.61 0.59 0.57 0.55 0.65 0.69 0.67 0.65 0.69 0.65 0.59 0.60 0.59 0.55 0.42 0.28
0.62 0.78 0.85 0.77 0.67 0.54 0.36 0.23 0.17 0.16 0.18 0.22 0.26 0.32 0.41 0.49 0.57 0.63 0.63 0.61 0.57 0.53 0.55 0.60 0.61 0.57 0.54 0.54 0.52 0.49 0.48 0.55 0.61 0.64 0.64 0.69 0.69 0.61 0.56 0.57 0.66 0.59 0.48
0.40 0.45 0.50 0.45 0.34 0.28 0.23 0.18 0.16 0.16 0.18 0.22 0.26 0.31 0.35 0.38 0.41 0.38 0.35 0.35 0.33 0.30 0.30 0.33 0.37 0.42 0.44 0.43 0.43 0.46 0.49 0.50 0.51 0.50 0.51 0.58 0.67 0.71 0.65 0.58 0.67 0.71 0.66
0.24 0.28 0.33 0.35 0.27 0.21 0.17 0.13 0.12 0.13 0.16 0.20 0.24 0.28 0.28 0.26 0.31 0.21 0.13 0.13 0.16 0.19 0.23 0.26 0.28 0.29 0.32 0.35 0.35 0.38 0.43 0.44 0.43 0.42 0.41 0.48 0.57 0.63 0.69 0.69 0.69 0.67 0.69
0.21 0.26 0.33 0.35 0.31 0.25 0.18 0.15 0.14 0.15 0.15 0.17 0.18 0.18 0.19 0.21 0.19 0.14 0.07 0.08 0.11 0.13 0.15 0.17 0.20 0.23 0.24 0.23 0.24 0.23 0.25 0.29 0.33 0.37 0.37 0.36 0.37 0.37 0.44 0.55 0.70 0.84 0.90
0.20 0.24 0.29 0.33 0.30 0.27 0.26 0.27 0.26 0.23 0.20 0.18 0.17 0.15 0.18 0.19 0.14 0.11 0.08 0.08 0.13 0.14 0.15 0.14 0.13 0.13 0.14 0.16 0.17 0.16 0.14 0.15 0.19 0.23 0.26 0.30 0.33 0.33 0.33 0.33 0.42 0.61 0.83
0.18 0.26 0.30 0.34 0.34 0.32 0.33 0.33 0.33 0.31 0.26 0.23 0.20 0.19 0.21 0.22 0.16 0.11 0.09 0.12 0.17 0.19 0.18 0.15 0.11 0.09 0.10 0.12 0.14 0.16 0.16 0.15 0.16 0.17 0.19 0.25 0.31 0.31 0.28 0.22 0.20 0.24 0.38
0.21 0.28 0.34 0.37 0.40 0.40 0.41 0.40 0.37 0.38 0.32 0.26 0.23 0.23 0.24 0.27 0.25 0.15 0.11 0.16 0.23 0.25 0.27 0.21 0.14 0.10 0.10 0.10 0.13 0.14 0.15 0.14 0.14 0.15 0.15 0.19 0.22 0.25 0.24 0.18 0.13 0.13 0.15
0.20 0.26 0.36 0.40 0.45 0.47 0.51 0.51 0.49 0.46 0.44 0.40 0.33 0.30 0.31 0.34 0.35 0.24 0.17 0.22 0.30 0.35 0.37 0.29 0.21 0.15 0.12 0.12 0.14 0.16 0.15 0.13 0.13 0.15 0.17 0.20 0.22 0.23 0.20 0.18 0.15 0.13 0.12
0.24 0.32 0.38 0.42 0.39 0.42 0.55 0.58 0.59 0.61 0.56 0.52 0.47 0.40 0.39 0.40 0.38 0.33 0.24 0.23 0.32 0.43 0.50 0.43 0.33 0.27 0.21 0.18 0.16 0.17 0.15 0.14 0.14 0.16 0.18 0.21 0.24 0.22 0.20 0.19 0.19 0.16 0.14
0.31 0.37 0.42 0.42 0.44 0.52 0.59 0.63 0.65 0.68 0.65 0.58 0.57 0.54 0.49 0.48 0.44 0.36 0.30 0.28 0.32 0.45 0.54 0.55 0.44 0.34 0.29 0.23 0.20 0.20 0.18 0.15 0.16 0.18 0.19 0.20 0.21 0.20 0.18 0.19 0.20 0.18 0.15
0.39 0.40 0.42 0.45 0.46 0.49 0.58 0.64 0.67 0.71 0.74 0.71 0.66 0.63 0.61 0.58 0.53 0.45 0.39 0.35 0.38 0.46 0.52 0.56 0.50 0.45 0.40 0.35 0.26 0.21 0.20 0.21 0.21 0.20 0.19 0.20 0.22 0.23 0.20 0.18 0.18 0.17 0.16
0.49 0.46 0.44 0.47 0.51 0.57 0.60 0.65 0.65 0.71 0.72 0.73 0.71 0.70 0.70 0.68 0.56 0.50 0.48 0.44 0.50 0.58 0.61 0.67 0.61 0.54 0.49 0.43 0.33 0.26 0.24 0.27 0.27 0.25 0.23 0.23 0.26 0.27 0.24 0.22 0.20 0.15 0.11
0.61 0.59 0.55 0.50 0.54 0.58 0.61 0.58 0.53 0.53 0.52 0.52 0.54 0.56 0.57 0.52 0.48 0.43 0.42 0.41 0.47 0.57 0.61 0.68 0.65 0.57 0.52 0.48 0.40 0.32 0.29 0.29 0.28 0.28 0.27 0.25 0.26 0.25 0.23 0.18 0.15 0.13 0.10
0.67 0.65 0.61 0.56 0.57 0.59 0.61 0.60 0.62 0.59 0.55 0.51 0.47 0.45 0.47 0.44 0.41 0.38 0.37 0.40 0.42 0.48 0.55 0.63 0.62 0.55 0.52 0.50 0.42 0.34 0.30 0.29 0.29 0.31 0.31 0.26 0.24 0.23 0.21 0.17 0.13 0.11 0.09
0.65 0.64 0.64 0.61 0.58 0.59 0.60 0.60 0.64 0.72 0.73 0.63 0.51 0.44 0.42 0.40 0.35 0.34 0.34 0.36 0.36 0.39 0.52 0.60 0.59 0.52 0.48 0.45 0.41 0.34 0.31 0.30 0.31 0.33 0.33 0.28 0.23 0.20 0.18 0.15 0.11 0.09 0.07
0.63 0.61 0.60 0.58 0.57 0.57 0.56 0.58 0.61 0.68 0.75 0.71 0.62 0.51 0.44 0.42 0.37 0.34 0.33 0.31 0.31 0.35 0.47 0.51 0.53 0.50 0.42 0.39 0.38 0.33 0.30 0.28 0.29 0.31 0.31 0.27 0.23 0.18 0.15 0.13 0.10 0.08 0.06
0.63 0.59 0.60 0.59 0.55 0.52 0.52 0.55 0.59 0.66 0.72 0.67 0.61 0.55 0.48 0.46 0.37 0.30 0.27 0.25 0.27 0.33 0.41 0.45 0.48 0.45 0.38 0.36 0.35 0.31 0.26 0.25 0.27 0.29 0.28 0.25 0.21 0.16 0.12 0.10 0.08 0.06 0.05
0.67 0.58 0.53 0.53 0.50 0.49 0.52 0.55 0.58 0.61 0.65 0.60 0.53 0.46 0.41 0.37 0.27 0.20 0.18 0.19 0.24 0.31 0.36 0.39 0.39 0.36 0.32 0.30 0.30 0.29 0.23 0.22 0.25 0.24 0.23 0.22 0.18 0.14 0.11 0.08 0.06 0.04 0.03
0.70 0.59 0.50 0.46 0.47 0.48 0.48 0.53 0.58 0.58 0.55 0.51 0.47 0.38 0.37 0.32 0.21 0.15 0.14 0.17 0.24 0.31 0.31 0.29 0.29 0.28 0.26 0.24 0.24 0.22 0.19 0.19 0.20 0.18 0.17 0.17 0.14 0.11 0.09 0.06 0.04 0.03 0.02
0.74 0.59 0.47 0.41 0.41 0.41 0.42 0.48 0.55 0.54 0.48 0.44 0.38 0.33 0.31 0.29 0.18 0.12 0.13 0.18 0.24 0.27 0.23 0.21 0.22 0.22 0.20 0.19 0.18 0.16 0.15 0.15 0.14 0.11 0.11 0.12 0.10 0.08 0.06 0.03 0.02 0.01 0.01
0.74 0.63 0.51 0.41 0.40 0.42 0.42 0.46 0.48 0.47 0.41 0.36 0.30 0.26 0.24 0.24 0.18 0.14 0.15 0.20 0.22 0.20 0.17 0.16 0.18 0.17 0.16 0.16 0.14 0.12 0.11 0.10 0.10 0.08 0.07 0.07 0.07 0.05 0.04 0.02 0.01 0.01 0.01
0.73 0.63 0.50 0.39 0.35 0.37 0.41 0.43 0.43 0.40 0.34 0.27 0.23 0.21 0.20 0.21 0.18 0.15 0.16 0.19 0.18 0.14 0.11 0.12 0.14 0.12 0.11 0.10 0.09 0.08 0.07 0.07 0.07 0.06 0.05 0.04 0.04 0.03 0.02 0.01 0.01 0.01 0.01
0.68 0.59 0.50 0.40 0.31 0.31 0.35 0.37 0.35 0.32 0.27 0.22 0.19 0.17 0.17 0.17 0.16 0.14 0.13 0.14 0.12 0.10 0.09 0.10 0.10 0.08 0.08 0.07 0.05 0.04 0.03 0.03 0.03 0.03 0.02 0.02 0.02 0.01 0.01 0.01 0.01 0.01 0.01